Flag for Chile Weather past 2 weeks in Talcahuano, Chile

Now
55 °F

Scattered showers. Broken clouds.


Feels Like: 50 °F
Forecast: 52 / 55 °F
Wind: 24 mph from North

Location: Concepcion Airport

Current Time: Sep 1, 2014 at 3:20:18 PM

Latest Report: Sep 1, 2014 at 3:00 PM


Visibility: N/A

Pressure: 29.83 "Hg

Humidity: 88%

Dew point: 52 °F

Location of TalcahuanoLocation

Historic Weather in Talcahuano — Graph

°F

Talcahuano temperature yesterday

Maximum temperature yesterday: 57 °F (at 3:00 PM)
Minimum temperature yesterday: 50 °F (at 5:00 AM)
Average temperature yesterday: 54 °F

Past Weeks' High & Low Weather Summary

 TemperatureHumidityPressure
High61 °F (Aug 25, 2:00 PM)100% (Aug 17, 5:00 PM)30.33 "Hg (Aug 17, 5:00 PM)
Low41 °F (Aug 26, 5:00 AM)45% (Aug 26, 12:00 PM)29.71 "Hg (Sep 1, 2:00 AM)
Average52 °F84%30.00 "Hg
* Reported Aug 17 2:00 PM — Sep 1 2:00 PM, Talcahuano, Weather by CustomWeather, © 2014

Note: Actual official high and low records may vary slightly from our data, if they occured in-between our weather recording intervals... More about our weather records

Advertising

Talcahuano weather history for previous 24 hours

 ConditionsComfort  
Time TempWeatherWind HumidityBarometerVisibility
2:00 PM
Sep 1
57 °FPartly sunny.22 mph88%29.83 "HgN/A
1:00 PM59 °FPartly sunny.22 mph88%29.83 "HgN/A
12:00 PM57 °FScattered showers. Broken clouds.23 mph94%29.80 "Hg4 mi
11:00 AM57 °FSprinkles. Broken clouds.24 mph94%29.80 "Hg3 mi
10:00 AM57 °FScattered showers. Broken clouds.24 mph88%29.80 "Hg4 mi
9:00 AM55 °FSprinkles. Broken clouds.23 mph94%29.77 "Hg4 mi
8:00 AM54 °FSprinkles. More clouds than sun.22 mph100%29.77 "Hg4 mi
7:00 AM55 °FSprinkles. More clouds than sun.21 mph94%29.74 "Hg4 mi
6:00 AM54 °FMostly cloudy.18 mph94%29.71 "HgN/A
5:00 AM55 °FLight rain. Mostly cloudy.12 mph88%29.71 "Hg5 mi
4:00 AM54 °FLight rain. Mostly cloudy.15 mph94%29.71 "Hg4 mi
3:00 AM55 °FLight rain. Mostly cloudy.16 mph82%29.71 "HgN/A
2:00 AM54 °FLight rain. Mostly cloudy.17 mph88%29.71 "HgN/A
1:00 AM55 °FLight rain. Mostly cloudy.23 mph88%29.74 "Hg5 mi
12:00 AM55 °FLight rain. Mostly cloudy.26 mph88%29.74 "Hg5 mi
11:00 PM
Aug 31
55 °FSprinkles. Mostly cloudy.29 mph88%29.77 "Hg5 mi
10:00 PM55 °FMostly cloudy.9 mph94%29.77 "HgN/A
9:00 PM55 °FMostly cloudy.8 mph88%29.77 "HgN/A
8:00 PM55 °FPassing clouds.8 mph88%29.80 "HgN/A
7:00 PM55 °FOvercast.8 mph94%29.80 "HgN/A
6:00 PM55 °FPassing clouds.13 mph88%29.80 "HgN/A
5:00 PM55 °FPartly sunny.16 mph88%29.83 "HgN/A
4:00 PM54 °FSprinkles. Broken clouds.17 mph100%29.83 "HgN/A
3:00 PM57 °FOvercast.13 mph82%29.83 "HgN/A
Weather by CustomWeather, © 2014

See weather overviewHow to use our weather pages